This is the latest recevied weather packets stored in our database for station/object KC3AWA. If no packets are shown the sender has not sent any weather packets the latest 10 day(s).
| Time | Temp. | Humidity | Pressure | Rain* | Wind** | Luminosity | Snow |
|---|---|---|---|---|---|---|---|
| 1777543832 | 6.11° C | 97% | 1010.7 hPa | 0 mm | - | 0 W/m² | - |
| 1777543528 | 6.11° C | 97% | 1010.7 hPa | 1.27 mm | - | 0 W/m² | - |
| 1777543225 | 6.11° C | 97% | 1010.6 hPa | 3.05 mm | - | 0 W/m² | - |
| 1777542920 | 6.11° C | 97% | 1010.7 hPa | 4.83 mm | - | 0 W/m² | - |
| 1777542617 | 6.67° C | 97% | 1010.6 hPa | 4.32 mm | - | 0 W/m² | - |
| 1777542313 | 6.67° C | 97% | 1010.6 hPa | 3.05 mm | - | 0 W/m² | - |
| 1777542011 | 6.67° C | 97% | 1010.7 hPa | 3.05 mm | - | 0 W/m² | - |
| 1777541708 | 6.67° C | 97% | 1010.6 hPa | 1.27 mm | - | 0 W/m² | - |
| 1777541405 | 6.67° C | 97% | 1010.8 hPa | 0 mm | - | 0 W/m² | - |
| 1777541100 | 6.67° C | 97% | 1010.6 hPa | 0 mm | - | 0 W/m² | - |
| 1777540798 | 6.67° C | 97% | 1010.6 hPa | 0 mm | - | 0 W/m² | - |
| 1777540495 | 6.67° C | 97% | 1010.4 hPa | 0 mm | - | 0 W/m² | - |
| 1777540191 | 6.67° C | 97% | 1010.3 hPa | 1.78 mm | - | 0 W/m² | - |
| 1777539892 | 6.67° C | 97% | 1010.6 hPa | 1.78 mm | - | 0 W/m² | - |
| 1777539589 | 6.67° C | 96% | 1010.4 hPa | 0 mm | - | 0 W/m² | - |
| 1777539285 | 6.67° C | 96% | 1010.2 hPa | 0 mm | - | 0 W/m² | - |
| 1777538982 | 6.67° C | 96% | 1010.5 hPa | 1.78 mm | - | 0 W/m² | - |
| 1777538677 | 6.67° C | 96% | 1010.4 hPa | 1.78 mm | - | 0 W/m² | - |
| 1777538372 | 6.67° C | 96% | 1010.3 hPa | 3.05 mm | - | 0 W/m² | - |
| 1777538069 | 6.67° C | 96% | 1010.4 hPa | 4.32 mm | - | 0 W/m² | - |
| 1777537764 | 6.67° C | 96% | 1010.4 hPa | 1.27 mm | - | 0 W/m² | - |
| 1777537461 | 6.67° C | 96% | 1010.4 hPa | 0 mm | - | 0 W/m² | - |
| 1777537157 | 6.67° C | 96% | 1010.3 hPa | 1.78 mm | - | 0 W/m² | - |
| 1777536853 | 6.67° C | 96% | 1010.2 hPa | 1.78 mm | - | 0 W/m² | - |
| 1777536551 | 6.67° C | 96% | 1010.2 hPa | 0 mm | - | 0 W/m² | - |
* Rain latest hour (hover to see other rain measurements)
** Current wind speed in m/s (hover to see current wind gust speed)